Location: *
(47.8307°S, 178.3954°E)
Time: 08:17:09
(UTC+00:00)

SL-19 R/B - Pass Details

Date: 12 August 2024
Orbit: 795 x 1009 km, 99.6° (Epoch: 18 September)

Event Time Altitude Azimuth Distance (km) Brightness Sun altitude
Rises 17:00:55 0° 9° (N) 3,304 7.4 -22.6°
Reaches altitude 10° 17:03:15 10° 6° (N) 2,376 6.6 -22.2°
Maximum altitude 17:08:26 65° 284° (WNW) 889 4.0 -21.3°
Drops below altitude 10° 17:13:45 10° 201° (SSW) 2,433 6.4 -20.4°
Sets 17:16:09 0° 198° (SSW) 3,391 7.2 -20.0°
